[[{"header":{"parameterUnit":"m.s-1","parameterCategory":1,"la1":30.2991,"la2":30.254,"lo1":-89.0895,"lo2":-89.0444,"dy":0.0017,"dx":0.0017,"nx":28,"ny":28,"refTime":"2025-06-21T09:00:00:Z","depth":0,"parameterNumber":2,"parameterNumberName":"U-component_of_WINDS"},"data":[0,0,0,0,0,0,0,0,0,0,0,0,0,0,0,0,0,0,0,0,0,0,0,0,0,0,0,0,0,0,0,0,0,0,0,0,0,0,0,0,0,0,0,0,0,0,0,0,0,0,0,0,0,0,0,0,0,0,0.4691,0.4691,0,0.4689,0.4689,0.4689,0.4684,0.4684,0.4684,0.4683,0.4681,0.4681,0.4681,0,0,0,0,0,0,0,0,0,0,0,0,0,0.4691,0.4692,0.4691,0.4691,0.4691,0.4689,0.4689,0.4689,0.4684,0.4684,0.4684,0.4683,0.4681,0.4681,0.4681,0,0,0,0,0,0,0,0,0,0,0,0,0,0.469,0.4692,0.4691,0.4688,0.4688,0.4689,0.4689,0.4689,0.4684,0.4684,0.4684,0.4683,0.4681,0.4681,0.4681,0.4684,0,0,0.4681,0.4681,0,0,0,0,0,0,0,0,0.469,0.469,0.4689,0.4689,0.4688,0.4686,0.4688,0.4687,0.4684,0.4685,0.4683,0.4683,0.4683,0.4683,0.4683,0.4684,0.4684,0.4681,0.4681,0.4681,0.4681,0,0,0,0,0,0,0,0.4691,0.469,0.469,0.4689,0.4688,0.4687,0.4687,0.4688,0.4685,0.4685,0.4685,0.4685,0.4683,0.4683,0.4683,0.4684,0.4681,0.4681,0.4681,0.4681,0.4688,0.4688,0,0,0,0,0,0,0.4691,0.4691,0.469,0.469,0.4689,0.4687,0.4687,0.4687,0.4685,0.4685,0.4685,0.4684,0.4683,0.4683,0.4683,0.4686,0.4681,0.4681,0.4681,0.4688,0.4688,0.4688,0,0,0,0,0,0,0.4691,0.4691,0.469,0.469,0.469,0.4687,0.4688,0.4687,0.4687,0.4685,0.4684,0.4685,0.4683,0.4682,0.4684,0.4686,0.4681,0.4681,0.4688,0.4688,0.4688,0.4693,0,0,0,0,0,0,0.4691,0.4691,0.4692,0.469,0.469,0.4692,0.4688,0.4687,0.4687,0.4687,0.4685,0.4684,0.4682,0.4684,0.4684,0.4686,0.4681,0.4687,0.4688,0.4688,0.4693,0.4694,0.4694,0,0,0,0,0,0.4691,0.4694,0.4692,0.4692,0.4691,0.4692,0.4692,0.4689,0.4687,0.4688,0.4687,0.4685,0.4686,0.4684,0.4684,0.4686,0.4687,0.4688,0.4688,0.4692,0.4693,0.4694,0,0,0,0,0,0,0.4696,0.4694,0.4692,0.4694,0.4693,0.4691,0.4692,0.469,0.469,0.469,0.4687,0.4686,0.4688,0.4687,0.4685,0.4689,0.4686,0.4686,0.469,0.469,0.4691,0.4691,0.4681,0,0,0,0,0,0.4698,0.4698,0.4696,0.4698,0.4697,0.4695,0.4695,0.4693,0.4692,0.4692,0.4691,0.469,0.469,0.469,0.469,0.4693,0.4692,0.4694,0.4695,0.4695,0.4696,0.4697,0.4698,0.4689,0.4689,0.4689,0,0,0.47,0.4699,0.4699,0.4699,0.4698,0.4699,0.4695,0.4696,0.4696,0.4692,0.4693,0.4692,0.4691,0.4693,0.4694,0.4692,0.4698,0.4696,0.4696,0.4696,0.4697,0.4698,0.4699,0.4689,0.4689,0.4689,0,0,0.4706,0.4705,0.4706,0.4706,0.4704,0.4703,0.4703,0.4701,0.47,0.4702,0.4699,0.4699,0.4699,0.4699,0.4698,0.4704,0.4701,0.4704,0.4707,0.4708,0.4709,0.471,0.4712,0.4712,0.4704,0.4704,0.4704,0,0.471,0.471,0.4708,0.4709,0.4708,0.4705,0.4706,0.4706,0.4705,0.4705,0.4703,0.4703,0.4702,0.4704,0.4705,0.4705,0.4705,0.4704,0.4709,0.471,0.471,0.4712,0.4713,0.4704,0.4704,0.4704,0.4704,0,0.4715,0.4716,0.4717,0.4716,0.4716,0.4717,0.4715,0.4715,0.4713,0.4712,0.4713,0.4711,0.4711,0.4711,0.471,0.4713,0.4712,0.471,0.4707,0.4711,0.4713,0.4714,0.4705,0.4705,0.4704,0.4704,0,0,0.4724,0.4721,0.4722,0.4721,0.4719,0.472,0.4721,0.4721,0.4721,0.472,0.4721,0.4721,0.4719,0.4719,0.4717,0.4718,0.4722,0.4716,0.4716,0.4717,0.4726,0.4728,0.4728,0.4721,0.4721,0.4721,0.4726,0,0.4729,0.4731,0.4728,0.4731,0.4731,0.4728,0.4729,0.4728,0.4726,0.4726,0.4725,0.4725,0.4722,0.4722,0.4723,0.4722,0.4724,0.4721,0.4722,0.4722,0.4722,0.4729,0.4731,0.4736,0.4726,0.4727,0.4727,0,0.4735,0.4735,0.4737,0.4735,0.4735,0.4736,0.4736,0.4736,0.4735,0.4734,0.4733,0.4731,0.4732,0.4729,0.473,0.4728,0.4728,0.4728,0.4728,0.4728,0.4725,0.4729,0.4737,0.4738,0.4728,0.4728,0.4727,0,0.4741,0.4741,0.4743,0.4743,0.474,0.4741,0.474,0.4739,0.4739,0.4738,0.4738,0.4738,0.4738,0.4737,0.4735,0.4733,0.4736,0.4733,0.4736,0.4736,0.4737,0.4737,0.4745,0.4736,0.4736,0.4736,0.4736,0,0.4748,0.4749,0.4746,0.4747,0.4748,0.4745,0.4747,0.4746,0.4745,0.4745,0.4742,0.4743,0.474,0.474,0.4738,0.4739,0.4739,0.4738,0.4738,0.4739,0.4739,0.4739,0.4738,0.4737,0.4737,0.4737,0.4737,0,0.4755,0.4753,0.4754,0.4752,0.4751,0.4753,0.4751,0.4751,0.475,0.475,0.475,0.4748,0.4748,0.4746,0.4745,0.4744,0.4746,0.4745,0.4747,0.4746,0.4749,0.4748,0.4757,0.4758,0.4749,0.4749,0.4749,0,0.4759,0.476,0.4758,0.4758,0.4758,0.4758,0.4758,0.4755,0.4755,0.4754,0.4754,0.4754,0.4754,0.4754,0.4752,0.4752,0.4751,0.4754,0.4751,0.4752,0.4751,0.4751,0.4751,0.4755,0.4755,0.4755,0.4755,0,0.4767,0.4765,0.4765,0.4765,0.4765,0.4764,0.4764,0.4764,0.4761,0.4761,0.4761,0.4761,0.476,0.476,0.476,0.4759,0.4756,0.4756,0.4756,0.4757,0.4758,0.4758,0.4748,0.4756,0.4756,0.4756,0.4756,0.4755,0.4773,0.4774,0.4772,0.4772,0.4771,0.4771,0.4771,0.477,0.477,0.4769,0.4767,0.4768,0.4766,0.4765,0.4764,0.4765,0.4763,0.4764,0.4764,0.4764,0.4765,0.4758,0.4764,0.4764,0.4764,0.4764,0.4764,0,0.478,0.4779,0.4779,0.4778,0.4778,0.4776,0.4775,0.4775,0.4775,0.4774,0.4774,0.4774,0.4774,0.4772,0.4772,0.4772,0.4771,0.4772,0.4772,0.4772,0.4766,0.4766,0.4773,0.4773,0.4773,0.4773,0.4773,0.4773,0.4784,0.4785,0.4784,0.4785,0.4784,0.4784,0.4784,0.4783,0.4782,0.4782,0.4782,0.4781,0.4779,0.4779,0.4779,0.4778,0.4778,0.478,0.4779,0.4773,0.4772,0.4772,0.4771,0.478,0.478,0.4784,0.4784,0.4784]},{"header":{"parameterUnit":"m.s-1","parameterCategory":1,"la1":30.2991,"la2":30.254,"lo1":-89.0895,"lo2":-89.0444,"dy":0.0017,"dx":0.0017,"nx":28,"ny":28,"refTime":"2025-06-21T09:00:00:Z","depth":0,"parameterNumber":3,"parameterNumberName":"V-component_of_WINDS"},"data":[0,0,0,0,0,0,0,0,0,0,0,0,0,0,0,0,0,0,0,0,0,0,0,0,0,0,0,0,0,0,0,0,0,0,0,0,0,0,0,0,0,0,0,0,0,0,0,0,0,0,0,0,0,0,0,0,0,0,-0.219,-0.2191,0,-0.2215,-0.2215,-0.2216,-0.222,-0.222,-0.222,-0.222,-0.2245,-0.2246,-0.2247,0,0,0,0,0,0,0,0,0,0,0,0,0,-0.2149,-0.215,-0.219,-0.2191,-0.2191,-0.2215,-0.2215,-0.2216,-0.222,-0.222,-0.222,-0.222,-0.2245,-0.2246,-0.2247,0,0,0,0,0,0,0,0,0,0,0,0,0,-0.217,-0.215,-0.219,-0.2196,-0.2197,-0.2215,-0.2215,-0.2216,-0.222,-0.222,-0.222,-0.222,-0.2245,-0.2246,-0.2247,-0.2261,0,0,-0.2251,-0.2252,0,0,0,0,0,0,0,0,-0.2168,-0.2171,-0.2195,-0.2196,-0.2197,-0.2214,-0.221,-0.2231,-0.222,-0.2212,-0.222,-0.2219,-0.2235,-0.2237,-0.2243,-0.2262,-0.2263,-0.2251,-0.2252,-0.2253,-0.2253,0,0,0,0,0,0,0,-0.2167,-0.217,-0.22,-0.2195,-0.2196,-0.2198,-0.2201,-0.2214,-0.2225,-0.2212,-0.2213,-0.2216,-0.2236,-0.2241,-0.2243,-0.2264,-0.2251,-0.2252,-0.2253,-0.2254,-0.2298,-0.2299,0,0,0,0,0,0,-0.2164,-0.2169,-0.2199,-0.2201,-0.2182,-0.2199,-0.2202,-0.2209,-0.2225,-0.2227,-0.2216,-0.2216,-0.2239,-0.2242,-0.2244,-0.2263,-0.2253,-0.2254,-0.2254,-0.2298,-0.2298,-0.2299,0,0,0,0,0,0,-0.2163,-0.2167,-0.2198,-0.2185,-0.2189,-0.22,-0.2208,-0.221,-0.2215,-0.2227,-0.2229,-0.2219,-0.2239,-0.2242,-0.2257,-0.2264,-0.2254,-0.2255,-0.2297,-0.2298,-0.2299,-0.2299,0,0,0,0,0,0,-0.2162,-0.2167,-0.2171,-0.2185,-0.219,-0.2211,-0.2208,-0.221,-0.2217,-0.2218,-0.2231,-0.2233,-0.2239,-0.2255,-0.2259,-0.2265,-0.2256,-0.2297,-0.2298,-0.2298,-0.2299,-0.23,-0.2301,0,0,0,0,0,-0.2161,-0.217,-0.2172,-0.2175,-0.2196,-0.2211,-0.2214,-0.222,-0.2218,-0.2223,-0.2231,-0.2233,-0.2262,-0.2257,-0.226,-0.2268,-0.2296,-0.2297,-0.2298,-0.2298,-0.23,-0.2301,0,0,0,0,0,0,-0.2157,-0.2172,-0.2174,-0.2188,-0.2198,-0.2212,-0.2219,-0.2221,-0.2232,-0.2232,-0.2239,-0.2243,-0.2257,-0.2264,-0.2257,-0.2283,-0.2279,-0.2281,-0.2278,-0.228,-0.2281,-0.2279,-0.2258,0,0,0,0,0,-0.2158,-0.2168,-0.2181,-0.2192,-0.2197,-0.2207,-0.2214,-0.2218,-0.2229,-0.2233,-0.2242,-0.2253,-0.2265,-0.2273,-0.2284,-0.23,-0.2304,-0.2307,-0.2308,-0.2309,-0.231,-0.2321,-0.2323,-0.2302,-0.2302,-0.2302,0,0,-0.2159,-0.2169,-0.2175,-0.2192,-0.22,-0.2212,-0.2211,-0.2222,-0.2231,-0.2235,-0.225,-0.2257,-0.227,-0.2286,-0.2293,-0.2292,-0.2317,-0.231,-0.231,-0.2311,-0.2322,-0.2324,-0.2326,-0.2302,-0.2302,-0.2302,0,0,-0.2168,-0.2176,-0.2187,-0.2196,-0.2209,-0.2216,-0.2219,-0.2232,-0.2237,-0.2253,-0.2256,-0.2267,-0.2287,-0.2297,-0.2304,-0.2319,-0.2321,-0.2322,-0.2328,-0.2338,-0.234,-0.2341,-0.2348,-0.235,-0.2324,-0.2324,-0.2324,0,-0.2169,-0.2186,-0.2193,-0.2205,-0.2213,-0.2217,-0.2229,-0.2238,-0.2254,-0.2259,-0.2258,-0.2284,-0.2293,-0.2312,-0.2316,-0.2321,-0.2325,-0.2321,-0.2339,-0.234,-0.2342,-0.2348,-0.2351,-0.2324,-0.2324,-0.2324,-0.2324,0,-0.2186,-0.2198,-0.2206,-0.2222,-0.2231,-0.2242,-0.2252,-0.226,-0.2264,-0.2272,-0.2288,-0.2299,-0.2314,-0.2319,-0.2322,-0.2339,-0.2338,-0.2337,-0.2334,-0.2344,-0.235,-0.2353,-0.2324,-0.2324,-0.2324,-0.2324,0,0,-0.2192,-0.2213,-0.2216,-0.2224,-0.224,-0.225,-0.2262,-0.2277,-0.2285,-0.2296,-0.2308,-0.2326,-0.2326,-0.2334,-0.2339,-0.2348,-0.2361,-0.2347,-0.2348,-0.235,-0.2382,-0.2383,-0.2385,-0.2363,-0.2363,-0.2364,-0.2381,0,-0.2204,-0.2226,-0.2234,-0.2253,-0.2266,-0.2271,-0.2283,-0.2294,-0.2302,-0.2314,-0.2322,-0.2335,-0.2334,-0.2339,-0.2348,-0.2358,-0.2368,-0.2357,-0.2375,-0.2375,-0.2372,-0.2388,-0.2389,-0.2405,-0.2384,-0.2384,-0.2384,0,-0.2219,-0.2232,-0.2253,-0.2269,-0.2274,-0.2284,-0.23,-0.231,-0.2324,-0.2329,-0.234,-0.2344,-0.2359,-0.2355,-0.2376,-0.2369,-0.2377,-0.2383,-0.2383,-0.2386,-0.2381,-0.2392,-0.241,-0.2413,-0.2388,-0.2388,-0.2388,0,-0.2223,-0.2245,-0.2261,-0.2268,-0.2286,-0.2294,-0.2302,-0.2315,-0.2324,-0.2338,-0.2344,-0.2359,-0.2367,-0.2379,-0.2388,-0.2384,-0.2409,-0.2405,-0.2415,-0.2415,-0.242,-0.2419,-0.244,-0.2424,-0.2424,-0.2424,-0.2424,0,-0.2235,-0.2248,-0.2263,-0.2273,-0.2288,-0.2297,-0.2312,-0.2321,-0.2333,-0.2345,-0.2351,-0.2362,-0.2374,-0.2387,-0.2394,-0.2412,-0.2415,-0.242,-0.2422,-0.242,-0.242,-0.2426,-0.2425,-0.2424,-0.2424,-0.2424,-0.2424,0,-0.2241,-0.2252,-0.227,-0.2287,-0.2291,-0.2302,-0.2317,-0.2327,-0.2336,-0.2351,-0.2355,-0.2369,-0.2385,-0.2396,-0.2416,-0.2421,-0.244,-0.2441,-0.2436,-0.2437,-0.2446,-0.2445,-0.2472,-0.2476,-0.2456,-0.2457,-0.2457,0,-0.2248,-0.2259,-0.2277,-0.2286,-0.2295,-0.2308,-0.2318,-0.2329,-0.2339,-0.2356,-0.2365,-0.2381,-0.2395,-0.2421,-0.2433,-0.2449,-0.2451,-0.2459,-0.2454,-0.2452,-0.2453,-0.2452,-0.2454,-0.246,-0.2461,-0.2461,-0.2461,0,-0.2261,-0.2266,-0.2279,-0.2296,-0.2307,-0.232,-0.2333,-0.2341,-0.2353,-0.2365,-0.2381,-0.2392,-0.2414,-0.2431,-0.2449,-0.2458,-0.2462,-0.2463,-0.2466,-0.2464,-0.2461,-0.2464,-0.2439,-0.2462,-0.2462,-0.2462,-0.2462,-0.2462,-0.2268,-0.2278,-0.2293,-0.2309,-0.232,-0.2333,-0.2344,-0.2355,-0.2369,-0.2388,-0.2393,-0.2411,-0.2427,-0.2451,-0.2461,-0.2476,-0.2475,-0.2479,-0.248,-0.2482,-0.2482,-0.2458,-0.2479,-0.2479,-0.2479,-0.2479,-0.2479,0,-0.2281,-0.2292,-0.2306,-0.2325,-0.2338,-0.2341,-0.2357,-0.2367,-0.2383,-0.2397,-0.2411,-0.2432,-0.2449,-0.2463,-0.2481,-0.2491,-0.2493,-0.2495,-0.2495,-0.2497,-0.2481,-0.2477,-0.2493,-0.2493,-0.2493,-0.2493,-0.2493,-0.2493,-0.2289,-0.2307,-0.2315,-0.2339,-0.235,-0.2368,-0.2376,-0.2389,-0.24,-0.2423,-0.2438,-0.2447,-0.2462,-0.2481,-0.2498,-0.2501,-0.2508,-0.251,-0.2514,-0.2499,-0.2498,-0.2496,-0.2493,-0.2511,-0.2511,-0.2529,-0.2529,-0.2529]}]]